YZ-1 R/B, 41929

Orbit data source: Space-Track

YZ-1 R/B, 41929 is space debris in HEO originally from a launch on Mon, 30 Mar 2015 UTC launched from the Xichang Space Center, China (XSC). Debris objects in space refer to the collection of defunct objects orbiting the Earth. Examples of debris include non-operational satellites, rocket bodies, and fragments generated from explosions, collisions, or faulty payload assembly.

Loading next visibility...
Identifier
41929, 2015-019C
Orbit
HEO
Country
Flag of CNCN / PRC
Related business
Manufacturer
CALT
Mission
Spacecraft
Bus & Motor
YZ-1, Unknown motor
Mass
2,075 kg wet, 2,075 kg dry
Launch date (UTC)
2015-03-30 (11 years ago)
Launch vehicle
Unknown
Launch site
Xichang Space Center, China (XSC)
Object type
Payload
Rocket body
Debris
Shape & HBR
Double Cone, 2.0 m
Radar Cross Section
5.890 m², Large (>1 m²)

Expand to show TLE details & history
Last TLE update: in 2 days

TLE from in 2 days
0 YZ-1 R/B
1 41929U 15019C   26256.52995223 -.00000731  00000-0  00000-0 0  9991
2 41929  17.0560  81.9272 7008568 320.0281 358.7951  0.27920028 11016
Epoch: 2026-09-13T12:43Z
TLE epoch observation values (Epoch: 2026-09-13T12:43:07.872Z)
Latitude
-10.91357°
Longitude
-140.18235°
Altitude
23,238.996 km
Speed
4.784 km/s
True Right ascension
02h 52m 29s
True Declination
-10° 53' 54"
Sunlit
Object was in daylight at epoch
Visualization orbit readout
Latitude
Unknown
Longitude
Unknown
Altitude
Unknown
Speed
Unknown
Apparent Right ascension
Unknown
Apparent Declination
Unknown
Sunlit
N/A
Visualization observer readout
Local Sidereal Time
00:57:09
Azimuth
Unknown
Elevation
Unknown
Doppler factor
Unknown
Orbital elements
Apogee altitude
161,810.759 km
Perigee altitude
23,202.581 km
Semi-major axis
98,884.807 km
Eccentricity
0.70086
Inclination
17.056°
RAAN
81.9272°
Arg. of periapsis
320.0281°
True anomaly
350.43247°
Mean anomaly
358.7951°
Eccentric anomaly
355.97989°
Mean motion
0.0698 °/min
Orbital period
5,157.67 mins
BSTAR
0
Loading maneuver chart data...
Computing Atmospheric mass density...
Loading historical data...
Loading historical data...
Loading historical data...
Loading historical data...
Loading historical data...
Loading historical data...
Loading historical data...
Other satellites on launch #19 in the year 2015 (2015-03-30 UTC)

Documentation

Showing up to 5 results
|